User: anonymous   Login
Location: Tyler Bend Campground
(35.9875°N, 92.7606°W)
Time: 13:13:57
(UTC-05:00)
Language:

CZ-2C R/B - Orbit

View from above orbital plane
View from above orbital plane
View from above satellite
View from above satellite

Ground track
Ground track

The orbit data is extracted from the following two-line orbital elements,

1 36089U 09061B   18140.95055831 +.00000050 +00000-0 +23467-4 0  9993
2 36089 098.0714 133.0841 0083372 085.6720 327.1389 14.49730588450559
Epoch (UTC): 20 May 2018 22:48:48
Eccentricity: 0.0083372
inclination: 98.0714°
perigee height: 667 km
apogee height: 786 km
right ascension of ascending node: 133.0841°
argument of perigee: 85.6720°
revolutions per day: 14.49730588
mean anomaly at epoch: 327.1389°
orbit number at epoch: 45055

The dashed part of the orbit path shows where the satellite is in the earth's shadow,  

DLR